Location: Unspecified
(0.0000°N, 0.0000°E)
Time: 08:47:41
(UTC+00:00)

METEOR M2 - Pass Details

Date: 05 December 2022
Orbit: 818 x 827 km, 98.4° (Epoch: 01 February)

Event Time Altitude Azimuth Distance (km) Brightness Sun altitude
Rises 19:23:17 0° 203° (SSW) 3,362 ? -21.3°
Reaches altitude 10° 19:26:53 10° 228° (SW) 2,427 ? -22.1°
Maximum altitude 19:29:28 14° 257° (WSW) 2,174 ? -22.7°
Drops below altitude 10° 19:32:04 10° 286° (WNW) 2,424 ? -23.3°
Sets 19:35:40 0° 312° (NW) 3,353 ? -24.1°
